This is the latest recevied weather packets stored in our database for station/object KQ4NAL. If no packets are shown the sender has not sent any weather packets the latest 10 day(s).
| Time | Temp. | Humidity | Pressure | Rain* | Wind** | Luminosity | Snow |
|---|---|---|---|---|---|---|---|
| 1778086652 | 14.44° C | 60% | 1014.6 hPa | 0 mm | - | 560 W/m² | - |
| 1778086349 | 13.89° C | 62% | 1014.5 hPa | 0 mm | - | 582 W/m² | - |
| 1778086046 | 13.89° C | 63% | 1014.5 hPa | 0 mm | - | 597 W/m² | - |
| 1778085743 | 13.89° C | 63% | 1014.2 hPa | 0 mm | - | 587 W/m² | - |
| 1778085440 | 13.89° C | 65% | 1014.5 hPa | 0 mm | - | 519 W/m² | - |
| 1778085134 | 13.33° C | 64% | 1014.6 hPa | 0 mm | - | 567 W/m² | - |
| 1778084831 | 13.33° C | 65% | 1014.7 hPa | 0 mm | - | 569 W/m² | - |
| 1778084528 | 13.33° C | 65% | 1014.5 hPa | 0 mm | - | 530 W/m² | - |
| 1778084226 | 13.33° C | 64% | 1014.3 hPa | 0 mm | - | 510 W/m² | - |
| 1778083923 | 12.78° C | 68% | 1014.4 hPa | 0 mm | - | 611 W/m² | - |
| 1778083620 | 13.33° C | 66% | 1014.3 hPa | 0 mm | - | 690 W/m² | - |
| 1778083317 | 13.33° C | 66% | 1014.5 hPa | 0 mm | - | 601 W/m² | - |
| 1778083015 | 13.33° C | 67% | 1014.4 hPa | 0 mm | - | 662 W/m² | - |
| 1778082712 | 12.78° C | 69% | 1014.2 hPa | 0 mm | - | 645 W/m² | - |
| 1778081574 | 12.78° C | 70% | 1014.2 hPa | 0 mm | - | 523 W/m² | - |
| 1778081271 | 12.78° C | 70% | 1014.2 hPa | 0 mm | - | 503 W/m² | - |
| 1778080968 | 12.78° C | 71% | 1014.2 hPa | 0 mm | - | 631 W/m² | - |
| 1778080667 | 12.78° C | 69% | 1014.2 hPa | 0 mm | - | 890 W/m² | - |
| 1778080363 | 12.22° C | 71% | 1013.8 hPa | 0 mm | - | 910 W/m² | - |
| 1778080060 | 12.22° C | 73% | 1013.9 hPa | 0 mm | - | 920 W/m² | - |
| 1778079757 | 11.67° C | 75% | 1013.8 hPa | 0 mm | - | 903 W/m² | - |
| 1778079454 | 11.67° C | 75% | 1013.7 hPa | 0 mm | - | 431 W/m² | - |
| 1778079150 | 11.11° C | 75% | 1013.7 hPa | 0 mm | - | 435 W/m² | - |
| 1778078848 | 11.67° C | 76% | 1013.9 hPa | 0 mm | - | 477 W/m² | - |
| 1778078545 | 11.67° C | 79% | 1013.5 hPa | 0 mm | - | 385 W/m² | - |
* Rain latest hour (hover to see other rain measurements)
** Current wind speed in m/s (hover to see current wind gust speed)